Location: Bemmer
(51.5498°N, 5.6249°E)
Time: 14:00:25
(UTC+00:00)

Cosmos 1461 - Pass Details

Date: 03 March 2021
Orbit: 504 x 659 km, 65.0° (Epoch: 10 April)

Event Time Altitude Azimuth Distance (km) Brightness Sun altitude
Rises 19:08:44 0° 245° (WSW) 2,980 7.5 -17.4°
Reaches altitude 10° 19:11:10 10° 253° (WSW) 2,076 6.7 -17.7°
Maximum altitude 19:15:37 40° 323° (NW) 982 4.4 -18.4°
Drops below altitude 10° 19:20:04 10° 33° (NNE) 2,067 5.5 -19.1°
Enters shadow 19:20:28 - 35° (NE) 2,213 5.7 -19.1°
